#timestamp,LO_Frequency,Hit,StdDev 
1512025215.9,286046992.3,N
1512025235.7,286046995.1,N
1512025255.5,286046992.1,N
1512025275.4,286046992.3,N
1512025295.2,286046994.5,N
1512025315.0,286046994.6,N
1512025315.9,286046994.6,N
1512025335.8,286046994.6,N
1512025355.6,286046995.3,N
1512025375.4,286046993.7,N
1512025395.3,286046993.7,N
1512025415.1,286046994.4,N
1512025416.0,286046994.4,N
1512025435.8,286046996.4,N
1512025455.7,286046992.9,N
1512025475.5,286046991.8,N
1512025495.3,286046990.4,N
1512025515.2,286046991.2,N
1512025535.9,286046989.2,Y
1512025555.7,286046993.8,P
1512025575.6,286046994.6,P
1512025595.4,286046993.4,P
1512025615.2,286046997.3,Y
1512025635.1,286047002.6,P
1512025636.0,286047002.6,N
1512025655.8,286047004.3,N
1512025675.6,286047003.8,N
1512025695.5,286047007.2,N
1512025715.3,286047009.9,N
1512025735.1,286047009.7,N
1512025755.8,286047004.9,N
1512025775.7,286047003.7,N
1512025795.5,286047003.7,N
1512025815.3,286047002.9,N
1512025835.2,286047005.6,N
1512025855.9,286047003.6,N
1512025875.7,286047007.4,N
1512025895.6,286047008.6,N
1512025915.4,286047008.6,N
1512025935.2,286047011.7,Y
1512025955.1,286047010.3,P
1512025956.0,286047010.3,P
1512025975.8,286047011.7,P
1512025995.6,286047011.3,Y
1512026015.5,286047003.0,P
1512026035.3,286047004.3,N
1512026055.1,286047007.3,N
1512026075.9,286047009.0,Y
1512026095.7,286047003.5,P
1512026115.5,286047004.2,P
1512026135.4,286047003.2,P
1512026155.2,286047003.8,Y
1512026175.0,286047001.2,P
1512026175.9,286047001.2,N
1512026195.8,286047004.4,P
1512026215.6,286046998.5,N
1512026235.4,286046998.9,N
1512026255.3,286046996.9,N
1512026275.1,286047000.4,N
1512026276.0,286047000.4,N
1512026295.8,286046998.2,N
1512026315.7,286046998.5,N
1512026335.5,286047000.1,N
1512026355.3,286047004.2,N
1512026375.2,286047001.4,N
1512026395.9,286047005.9,N
1512026415.7,286047005.9,N
1512026435.6,286047004.0,N
1512026455.4,286047002.5,N
1512026475.2,286047001.8,N
1512026495.0,286047003.3,N
1512026495.9,286047003.3,N
1512026515.8,286047003.6,N
1512026535.6,286047000.3,N
1512026555.4,286046999.7,N
1512026575.3,286047001.5,N
1512026595.1,286047000.4,N
1512026615.8,286047002.3,N
1512026635.7,286046998.5,N
1512026655.5,286046999.6,N
1512026675.3,286046996.7,N
1512026695.2,286046995.9,N
1512026715.9,286046997.8,N
1512026735.7,286046997.3,N
1512026755.6,286046999.4,N
1512026775.4,286046994.9,N
1512026795.2,286047000.3,N
1512026815.0,286047002.3,N
1512026816.0,286047002.3,N
1512026835.8,286047002.8,N
1512026855.6,286047000.0,N
1512026875.4,286046999.9,N
1512026895.3,286047000.6,N
1512026915.1,286046997.6,N
1512026935.8,286046996.5,N
1512026955.7,286046996.8,N
1512026975.5,286046996.1,N
1512026995.3,286046996.1,N
1512027015.2,286046993.7,N
1512027035.9,286046995.2,N
1512027055.7,286046997.6,N
1512027075.6,286046996.6,N
1512027095.4,286046997.7,N
1512027115.2,286046994.9,N
1512027135.0,286046994.6,N
1512027136.0,286046994.6,N
1512027155.8,286046992.4,N
1512027175.6,286046996.3,N
1512027195.4,286046995.8,N
1512027215.3,286046992.8,N
1512027235.1,286046990.4,Y
1512027255.8,286046993.2,P
1512027275.7,286046994.8,N
1512027295.5,286046996.3,N
1512027315.3,286046995.6,N
1512027335.2,286046997.9,N
1512027355.0,286046998.8,N
1512027355.9,286046998.8,N
1512027375.7,286046997.3,N
1512027395.6,286047000.7,N
1512027415.4,286046998.1,N
1512027435.2,286047001.2,N
1512027455.1,286047001.5,N
1512027456.0,286047001.5,N
1512027475.8,286047001.1,N
1512027495.6,286047002.3,N
1512027515.5,286047004.9,N
1512027535.3,286047009.2,Y
1512027555.1,286047010.8,P
1512027575.9,286047014.8,N
1512027595.7,286047013.6,N
1512027615.5,286047013.8,N
1512027635.4,286047011.5,N
1512027655.2,286047014.2,N
1512027675.0,286047017.1,Y
1512027675.9,286047017.1,P
1512027695.8,286047007.4,N
1512027715.6,286047007.5,N
1512027735.4,286047007.6,N
1512027755.3,286047005.5,N
1512027775.1,286047003.4,N
1512027776.0,286047003.4,N
1512027795.8,286047005.5,N
1512027815.6,286046998.6,N
1512027835.5,286046998.3,N
1512027855.3,286046998.6,N
1512027875.1,286047003.9,N
1512027895.9,286047004.6,N
1512027915.7,286047005.8,N
1512027935.5,286047004.5,N
1512027955.4,286047005.9,N
1512027975.2,286047002.9,N
1512027995.0,286047001.6,N
1512027995.9,286047001.6,N
1512028015.8,286047000.5,N
1512028035.6,286046996.9,N
1512028055.4,286047000.2,N
1512028075.3,286047001.3,N
1512028095.1,286047001.7,N
1512028096.0,286047001.7,N
1512028115.8,286047001.5,N
1512028135.6,286047002.9,N
1512028155.5,286047004.9,N
1512028175.3,286047005.3,N
1512028195.1,286047002.9,N
1512028215.9,286047002.9,N
1512028235.7,286047005.7,N
1512028255.5,286047005.4,N
1512028275.4,286047004.8,N
1512028295.2,286047007.4,N
1512028315.0,286047006.3,N
1512028315.9,286047006.3,N
1512028335.8,286047004.1,N
1512028355.6,286047001.5,N
1512028375.4,286047002.9,N
1512028395.3,286047006.7,N
1512028415.1,286047006.2,N
1512028416.0,286047006.2,N
1512028435.8,286047010.6,Y
1512028455.7,286047010.7,P
1512028475.5,286047008.9,N
1512028495.3,286047001.9,N
1512028515.2,286046999.5,N
1512028535.9,286047002.3,N
1512028555.7,286046999.7,N
1512028575.5,286046999.3,N
1512028595.4,286046997.9,N
1512028615.2,286046991.7,N
1512028635.0,286046987.6,N
1512028635.9,286046987.6,N
1512028655.8,286046985.8,N
1512028675.6,286046985.8,N
1512028695.4,286046985.6,N
1512028715.3,286046990.3,N
1512028735.1,286046990.4,N
1512028755.8,286046989.5,N
1512028775.7,286046985.4,N
1512028795.5,286046982.3,N
